Flag for Brazil Weather past 2 weeks in Santarém, Para, Brazil

Now
88 °F

Passing clouds.


Feels Like: 98 °F
Forecast: N/A
Wind: 7 mph from Northeast

Location: Santarem-Aeroporto

Current Time: Jul 30, 2014 at 6:38:48 PM

Latest Report: Jul 30, 2014 at 5:00 PM


Visibility: N/A

Pressure: 29.86 "Hg

Humidity: 66%

Dew point: 75 °F

Location of SantarémLocation

Historic Weather in Santarém — Graph

°F

Santarém temperature yesterday

Maximum temperature yesterday: 86 °F (at 12:00 PM)
Minimum temperature yesterday: 72 °F (at 2:00 AM)
Average temperature yesterday: 79 °F

Past Weeks' High & Low Weather Summary

 TemperatureHumidityPressure
High88 °F (Jul 15, 5:00 PM)100% (Jul 16, 2:00 AM)30.04 "Hg (Jul 16, 2:00 AM)
Low72 °F (Jul 18, 7:00 AM)62% (Jul 19, 2:00 PM)29.80 "Hg (Jul 25, 5:00 PM)
Average80 °F85%29.94 "Hg
* Reported Jul 15 5:00 PM — Jul 30 5:00 PM, Santarém, Weather by CustomWeather, © 2014

Note: Actual official high and low records may vary slightly from our data, if they occured in-between our weather recording intervals... More about our weather records

Advertising

Santarém weather history for previous 24 hours

 ConditionsComfort  
Time TempWeatherWind HumidityBarometerVisibility
5:00 PM
Jul 30
88 °FPassing clouds.7 mph66%29.86 "HgN/A
4:00 PM88 °FPassing clouds.7 mph66%29.89 "HgN/A
3:00 PM88 °FPassing clouds.5 mph62%29.89 "HgN/A
2:00 PM86 °FScattered clouds.9 mph70%29.92 "HgN/A
1:00 PM86 °FPassing clouds.7 mph70%29.95 "HgN/A
12:00 PM86 °FPassing clouds.3 mph70%29.98 "HgN/A
11:00 AM86 °FPassing clouds.6 mph70%29.98 "HgN/A
10:00 AM86 °FPassing clouds.7 mph75%29.98 "HgN/A
9:00 AM82 °FPassing clouds.5 mph84%30.01 "HgN/A
8:00 AM75 °FPassing clouds.2 mph100%29.98 "HgN/A
7:00 AM72 °FPassing clouds.No wind100%29.95 "HgN/A
6:00 AM72 °FClear.No wind100%29.95 "Hg10 mi
5:00 AM72 °FClear.No wind100%29.92 "Hg10 mi
4:00 AM72 °FClear.No wind100%29.92 "Hg10 mi
3:00 AM73 °FClear.No wind100%29.92 "Hg10 mi
2:00 AM73 °FClear.No wind100%29.95 "Hg10 mi
1:00 AM73 °FClear.No wind100%29.95 "Hg10 mi
12:00 AM75 °FClear.No wind94%29.98 "Hg10 mi
11:00 PM
Jul 29
75 °FClear.No wind94%29.98 "Hg10 mi
10:00 PM75 °FClear.No wind94%29.95 "Hg10 mi
9:00 PM75 °FClear.No wind100%29.92 "Hg10 mi
8:00 PM77 °FClear.No wind94%29.92 "Hg10 mi
7:00 PM81 °FPassing clouds.5 mph84%29.92 "HgN/A
6:00 PM84 °FPassing clouds.6 mph74%29.89 "HgN/A
Weather by CustomWeather, © 2014

See weather overviewHow to use our weather pages